This demonstration page uses our WeatherBlox Daily Observations layout. Learn more.

Left ArrowRight Arrow

38.80484, -77.04692

Hourly Observations for November 9, 2020

Temp ( °F °C ) Dew Point ( °F °C ) Humidity (%) Winds ( mph kmh ) Pressure ( in mb ) Visibility ( mi km ) Precip ( " mm )
12:52 am 00:52 Partly Cloudy 56 13.3 54 12.2 93 93 SSW 3 6 30.36 1028 10 16.0934 0 0
1:40 am 01:40 Clear 54 12.2 53 11.7 97 97 Calm 30.36 1028 0.75 1.207005 0 0
1:44 am 01:44 Mostly Clear 55 12.8 53 11.7 93 93 Calm 30.36 1028 10 16.0934 0 0
1:52 am 01:52 Mostly Clear 56 13.3 54 12.2 93 93 Calm 30.35 1028 10 16.0934 0 0
2:52 am 02:52 Mostly Clear 55 12.8 54 12.2 96 96 Calm 30.36 1028 10 16.0934 0 0
3:52 am 03:52 Clear 54 12.2 53 11.7 97 97 SSW 3 6 30.35 1028 10 16.0934 0 0
4:52 am 04:52 Mostly Clear with Fog 54 12.2 52 11.1 93 93 Calm 30.36 1028 7 11.26538 0 0
5:52 am 05:52 Mostly Clear with Fog 53 11.7 52 11.1 96 96 Calm 30.37 1028 7 11.26538 0 0
5:54 am 05:54 Mostly Clear with Fog 53 11.7 52 11.1 96 96 Calm 30.37 1028 7 11.26538 0 0
6:31 am 06:31 Mostly Clear with Patchy Fog 53 11.7 52 11.1 96 96 Calm 30.37 1028 5 8.0467 0 0
6:34 am 06:34 Mostly Clear with Patchy Fog 53 11.7 52 11.1 96 96 Calm 30.37 1028 5 8.0467 0 0
6:52 am 06:52 Partly Cloudy with Mist and Fog 53 11.7 52 11.1 96 96 Calm 30.38 1029 6 9.65604 0 0
7:52 am 07:52 Partly Cloudy with Fog 54 12.2 54 12.2 100 100 S 3 6 30.39 1029 7 11.26538 0 0
8:52 am 08:52 Mostly Sunny 57 13.9 56 13.3 96 96 Calm 30.39 1029 7 11.26538 0 0
9:52 am 09:52 Sunny 63 17.2 57 13.9 81 81 SSE 3 6 30.38 1029 10 16.0934 0 0
10:52 am 10:52 Sunny 67 19.4 58 14.4 73 73 S 6 9 30.37 1028 10 16.0934 0 0
11:52 am 11:52 Mostly Sunny 70 21.1 58 14.4 66 66 SSE 7 11 30.35 1028 10 16.0934 0 0
12:52 pm 12:52 Mostly Sunny 73 22.8 59 15 62 62 SSE 6 9 30.32 1027 10 16.0934 0 0
1:52 pm 13:52 Mostly Sunny 74 23.3 59 15 60 60 S 9 15 30.29 1026 10 16.0934 0 0
2:52 pm 14:52 Mostly Sunny 74 23.3 57 13.9 56 56 S 9 15 30.28 1026 10 16.0934 0 0
3:52 pm 15:52 Mostly Sunny 71 21.7 57 13.9 61 61 S 8 13 30.28 1025 10 16.0934 0 0
4:52 pm 16:52 Mostly Sunny 69 20.6 55 12.8 61 61 S 9 15 30.27 1025 10 16.0934 0 0
5:52 pm 17:52 Mostly Clear 65 18.3 55 12.8 70 70 S 7 11 30.28 1025 10 16.0934 0 0
6:52 pm 18:52 Mostly Clear 63 17.2 55 12.8 76 76 S 9 15 30.28 1026 10 16.0934 0 0
7:52 pm 19:52 Mostly Clear 62 16.7 55 12.8 78 78 S 6 9 30.29 1026 10 16.0934 0 0
8:52 pm 20:52 Mostly Clear 61 16.1 55 12.8 81 81 S 8 13 30.28 1026 10 16.0934 0 0
9:52 pm 21:52 Mostly Clear 60 15.6 55 12.8 84 84 S 7 11 30.28 1026 10 16.0934 0 0
10:52 pm 22:52 Mostly Clear 59 15 54 12.2 83 83 S 7 11 30.27 1025 10 16.0934 0 0
11:52 pm 23:52 Mostly Clear 58 14.4 54 12.2 87 87 S 6 9 30.27 1025 10 16.0934 0 0

Powered by AerisWeather